Time,TemperatureF,DewpointF,PressureIn,WindDirection,WindDirectionDegrees,WindSpeedMPH,WindSpeedGustMPH,Humidity,HourlyPrecipIn,Conditions,Clouds,dailyrainin,SoftwareType,DateUTC
2013-12-12 00:01:00,36.2,24.0,30.25,ENE,76,2.8,2.8,61,0.00,CLR,SCT,0.00,WeatherDisplay:10.37,2013-12-12 05:01:00,
2013-12-12 00:02:00,36.1,23.9,30.25,NNW,344,4.6,4.6,61,0.00,CLR,SCT,0.00,WeatherDisplay:10.37,2013-12-12 05:02:00,
2013-12-12 00:07:00,35.9,23.7,30.25,NNE,17,0.0,0.0,61,0.00,CLR,SCT,0.00,WeatherDisplay:10.37,2013-12-12 05:07:00,
2013-12-12 00:12:00,35.7,23.6,30.26,NW,311,6.9,6.9,61,0.00,CLR,SCT,0.00,WeatherDisplay:10.37,2013-12-12 05:12:00,
2013-12-12 00:17:00,35.7,23.6,30.25,ENE,69,4.6,4.6,61,0.00,CLR,SCT,0.00,WeatherDisplay:10.37,2013-12-12 05:17:00,
2013-12-12 00:22:00,35.6,23.9,30.26,ENE,62,3.5,3.5,62,0.00,CLR,SCT,0.00,WeatherDisplay:10.37,2013-12-12 05:22:00,
2013-12-12 00:27:00,35.3,23.6,30.25,NE,48,10.4,10.4,62,0.00,CLR,SCT,0.00,WeatherDisplay:10.37,2013-12-12 05:27:00,
2013-12-12 00:32:00,34.9,23.2,30.25,East,89,10.1,10.1,62,0.00,CLR,SCT,0.00,WeatherDisplay:10.37,2013-12-12 05:32:00,
2013-12-12 00:37:00,34.9,23.2,30.25,North,356,9.2,9.2,62,0.00,CLR,SCT,0.00,WeatherDisplay:10.37,2013-12-12 05:37:00,
2013-12-12 00:42:00,34.7,23.0,30.25,ENE,72,13.8,13.8,62,0.00,CLR,SCT,0.00,WeatherDisplay:10.37,2013-12-12 05:42:00,
2013-12-12 00:47:00,34.6,22.9,30.25,NW,304,10.4,10.4,62,0.00,CLR,SCT,0.00,WeatherDisplay:10.37,2013-12-12 05:47:00,
2013-12-12 00:52:00,34.5,23.2,30.25,ENE,65,9.2,9.2,63,0.00,CLR,SCT,0.00,WeatherDisplay:10.37,2013-12-12 05:52:00,
2013-12-12 00:57:00,34.5,22.8,30.25,NE,34,4.6,4.6,62,0.00,CLR,SCT,0.00,WeatherDisplay:10.37,2013-12-12 05:57:00,
2013-12-12 01:02:00,34.5,23.2,30.25,NNE,31,8.1,8.1,63,0.00,CLR,SCT,0.00,WeatherDisplay:10.37,2013-12-12 06:02:00,
2013-12-12 01:07:00,34.5,23.2,30.25,NNE,28,5.0,5.0,63,0.00,CLR,SCT,0.00,WeatherDisplay:10.37,2013-12-12 06:07:00,
2013-12-12 01:12:00,34.4,23.1,30.25,NE,42,4.6,4.6,63,0.00,CLR,SCT,0.00,WeatherDisplay:10.37,2013-12-12 06:12:00,
2013-12-12 01:17:00,34.1,22.8,30.25,East,85,4.6,4.6,63,0.00,CLR,SCT,0.00,WeatherDisplay:10.37,2013-12-12 06:17:00,
2013-12-12 01:22:00,34.1,23.2,30.25,North,7,1.1,1.1,64,0.00,CLR,SCT,0.00,WeatherDisplay:10.37,2013-12-12 06:22:00,
2013-12-12 01:27:00,34.1,23.2,30.26,NNE,24,3.5,3.5,64,0.00,CLR,SCT,0.00,WeatherDisplay:10.37,2013-12-12 06:27:00,
2013-12-12 01:32:00,33.8,23.3,30.26,NE,45,8.1,8.1,65,0.00,CLR,SCT,0.00,WeatherDisplay:10.37,2013-12-12 06:32:00,
2013-12-12 01:37:00,33.6,23.1,30.25,ENE,62,10.4,10.4,65,0.00,CLR,SCT,0.00,WeatherDisplay:10.37,2013-12-12 06:37:00,
2013-12-12 01:42:00,33.5,23.0,30.26,NNE,28,5.0,5.0,65,0.00,CLR,SCT,0.00,WeatherDisplay:10.37,2013-12-12 06:42:00,
2013-12-12 01:47:00,33.3,23.2,30.26,East,86,5.7,5.7,66,0.00,CLR,SCT,0.00,WeatherDisplay:10.37,2013-12-12 06:47:00,
2013-12-12 01:52:00,33.3,23.2,30.26,NNE,13,9.2,9.2,66,0.00,CLR,SCT,0.00,WeatherDisplay:10.37,2013-12-12 06:52:00,
2013-12-12 01:57:00,33.3,23.2,30.26,ENE,75,8.1,8.1,66,0.00,CLR,SCT,0.00,WeatherDisplay:10.37,2013-12-12 06:57:00,
2013-12-12 02:02:00,33.2,23.4,30.26,NE,56,9.2,9.2,67,0.00,CLR,SCT,0.00,WeatherDisplay:10.37,2013-12-12 07:02:00,
2013-12-12 02:07:00,33.2,23.4,30.26,NE,51,13.8,13.8,67,0.00,CLR,SCT,0.00,WeatherDisplay:10.37,2013-12-12 07:07:00,
2013-12-12 02:12:00,32.9,23.1,30.27,East,89,6.1,6.1,67,0.00,CLR,SCT,0.00,WeatherDisplay:10.37,2013-12-12 07:12:00,
2013-12-12 02:17:00,32.8,23.4,30.27,East,79,5.8,5.8,68,0.00,CLR,SCT,0.00,WeatherDisplay:10.37,2013-12-12 07:17:00,
2013-12-12 02:22:00,32.7,23.3,30.27,East,89,5.8,5.8,68,0.00,CLR,SCT,0.00,WeatherDisplay:10.37,2013-12-12 07:22:00,
2013-12-12 02:27:00,32.6,23.2,30.27,NE,34,4.2,4.2,68,0.00,CLR,SCT,0.00,WeatherDisplay:10.37,2013-12-12 07:27:00,
2013-12-12 02:32:00,32.6,23.2,30.27,ENE,76,4.6,4.6,68,0.00,CLR,SCT,0.00,WeatherDisplay:10.37,2013-12-12 07:32:00,
2013-12-12 02:37:00,32.7,23.3,30.27,ENE,64,6.9,6.9,68,0.00,CLR,SCT,0.00,WeatherDisplay:10.37,2013-12-12 07:37:00,
2013-12-12 02:42:00,32.6,23.2,30.27,ENE,66,5.8,5.8,68,0.00,CLR,SCT,0.00,WeatherDisplay:10.37,2013-12-12 07:42:00,
2013-12-12 02:47:00,32.6,23.6,30.27,NE,44,4.6,4.6,69,0.00,CLR,SCT,0.00,WeatherDisplay:10.37,2013-12-12 07:47:00,
2013-12-12 02:52:00,32.4,23.4,30.27,East,89,6.9,6.9,69,0.00,CLR,SCT,0.00,WeatherDisplay:10.37,2013-12-12 07:52:00,
2013-12-12 02:57:00,32.4,23.0,30.27,ENE,71,6.9,6.9,68,0.00,CLR,SCT,0.00,WeatherDisplay:10.37,2013-12-12 07:57:00,
2013-12-12 03:02:00,32.3,23.3,30.27,NNE,16,5.8,5.8,69,0.00,FEW,SCT,0.00,WeatherDisplay:10.37,2013-12-12 08:02:00,
2013-12-12 03:07:00,32.3,23.3,30.27,NE,41,3.5,3.5,69,0.00,FEW,SCT,0.00,WeatherDisplay:10.37,2013-12-12 08:07:00,
2013-12-12 03:12:00,32.2,23.2,30.27,NNE,18,6.9,6.9,69,0.00,FEW,SCT,0.00,WeatherDisplay:10.37,2013-12-12 08:12:00,
2013-12-12 03:17:00,32.2,23.2,30.27,ESE,102,5.8,5.8,69,0.00,FEW,SCT,0.00,WeatherDisplay:10.37,2013-12-12 08:17:00,
2013-12-12 03:22:00,32.1,22.7,30.27,ENE,66,5.8,5.8,68,0.00,FEW,SCT,0.00,WeatherDisplay:10.37,2013-12-12 08:22:00,
2013-12-12 03:27:00,32.1,23.1,30.27,NE,34,6.9,6.9,69,0.00,FEW,SCT,0.00,WeatherDisplay:10.37,2013-12-12 08:27:00,
2013-12-12 03:32:00,32.1,23.1,30.26,NNE,20,10.9,10.9,69,0.00,FEW,SCT,0.00,WeatherDisplay:10.37,2013-12-12 08:32:00,
2013-12-12 03:37:00,31.7,23.0,30.27,NE,40,15.0,15.0,70,0.00,FEW,SCT,0.00,WeatherDisplay:10.37,2013-12-12 08:37:00,
2013-12-12 03:42:00,31.6,22.6,30.26,ENE,75,6.9,6.9,69,0.00,FEW,SCT,0.00,WeatherDisplay:10.37,2013-12-12 08:42:00,
2013-12-12 03:47:00,31.6,22.9,30.26,ENE,71,5.8,5.8,70,0.00,FEW,SCT,0.00,WeatherDisplay:10.37,2013-12-12 08:47:00,
2013-12-12 03:52:00,31.6,22.9,30.26,North,8,8.1,8.1,70,0.00,FEW,SCT,0.00,WeatherDisplay:10.37,2013-12-12 08:52:00,
2013-12-12 03:57:00,31.6,22.9,30.26,ENE,68,5.8,5.8,70,0.00,FEW,SCT,0.00,WeatherDisplay:10.37,2013-12-12 08:57:00,
2013-12-12 04:02:00,31.3,22.6,30.26,NNE,23,6.9,6.9,70,0.00,BKN,SCT,0.00,WeatherDisplay:10.37,2013-12-12 09:02:00,
2013-12-12 04:07:00,31.2,22.5,30.26,NNE,32,3.8,3.8,70,0.00,BKN,SCT,0.00,WeatherDisplay:10.37,2013-12-12 09:07:00,
2013-12-12 04:12:00,31.1,22.5,30.26,North,357,6.9,6.9,70,0.00,BKN,SCT,0.00,WeatherDisplay:10.37,2013-12-12 09:12:00,
2013-12-12 04:17:00,31.0,22.4,30.26,NW,326,8.1,8.1,70,0.00,BKN,SCT,0.00,WeatherDisplay:10.37,2013-12-12 09:17:00,
2013-12-12 04:22:00,30.9,22.3,30.26,NNW,337,6.9,6.9,70,0.00,BKN,SCT,0.00,WeatherDisplay:10.37,2013-12-12 09:22:00,
2013-12-12 04:27:00,30.8,22.2,30.26,NE,49,8.1,8.1,70,0.00,BKN,SCT,0.00,WeatherDisplay:10.37,2013-12-12 09:27:00,
2013-12-12 04:32:00,30.7,22.1,30.26,ENE,72,6.9,6.9,70,0.00,BKN,SCT,0.00,WeatherDisplay:10.37,2013-12-12 09:32:00,
2013-12-12 04:37:00,30.7,22.1,30.26,NNE,32,10.1,10.1,70,0.00,BKN,SCT,0.00,WeatherDisplay:10.37,2013-12-12 09:37:00,
2013-12-12 04:42:00,30.6,22.0,30.26,East,93,3.5,3.5,70,0.00,BKN,SCT,0.00,WeatherDisplay:10.37,2013-12-12 09:42:00,
2013-12-12 04:47:00,30.6,22.0,30.26,NNE,31,3.5,3.5,70,0.00,BKN,SCT,0.00,WeatherDisplay:10.37,2013-12-12 09:47:00,
2013-12-12 04:52:00,30.5,21.9,30.26,North,7,8.1,8.1,70,0.00,BKN,SCT,0.00,WeatherDisplay:10.37,2013-12-12 09:52:00,
2013-12-12 04:57:00,30.4,22.1,30.27,NE,35,5.8,5.8,71,0.00,BKN,SCT,0.00,WeatherDisplay:10.37,2013-12-12 09:57:00,
2013-12-12 05:02:00,30.3,21.7,30.27,NE,55,6.9,6.9,70,0.00,CLR,SCT,0.00,WeatherDisplay:10.37,2013-12-12 10:02:00,
2013-12-12 05:07:00,30.3,21.7,30.27,North,360,5.8,5.8,70,0.00,CLR,SCT,0.00,WeatherDisplay:10.37,2013-12-12 10:07:00,
2013-12-12 05:12:00,30.3,22.0,30.27,NE,49,5.8,5.8,71,0.00,CLR,SCT,0.00,WeatherDisplay:10.37,2013-12-12 10:12:00,
2013-12-12 05:17:00,30.3,21.7,30.27,NE,38,6.9,6.9,70,0.00,CLR,SCT,0.00,WeatherDisplay:10.37,2013-12-12 10:17:00,
2013-12-12 05:22:00,30.2,21.9,30.27,NE,34,6.9,6.9,71,0.00,CLR,SCT,0.00,WeatherDisplay:10.37,2013-12-12 10:22:00,
2013-12-12 05:27:00,30.3,22.0,30.27,ENE,58,6.9,6.9,71,0.00,CLR,SCT,0.00,WeatherDisplay:10.37,2013-12-12 10:27:00,
2013-12-12 05:32:00,30.2,21.9,30.27,ESE,107,9.2,9.2,71,0.00,CLR,SCT,0.00,WeatherDisplay:10.37,2013-12-12 10:32:00,
2013-12-12 05:37:00,30.1,21.5,30.27,ENE,66,10.4,10.4,70,0.00,CLR,SCT,0.00,WeatherDisplay:10.37,2013-12-12 10:37:00,
2013-12-12 05:42:00,29.8,21.5,30.28,ENE,71,6.0,6.0,71,0.00,CLR,SCT,0.00,WeatherDisplay:10.37,2013-12-12 10:42:00,
2013-12-12 05:47:00,29.8,21.5,30.28,NE,51,8.1,8.1,71,0.00,CLR,SCT,0.00,WeatherDisplay:10.37,2013-12-12 10:47:00,
2013-12-12 05:52:00,29.6,21.3,30.28,SSE,158,8.1,8.1,71,0.00,CLR,SCT,0.00,WeatherDisplay:10.37,2013-12-12 10:52:00,
2013-12-12 05:57:00,29.4,21.2,30.29,ENE,73,9.2,9.2,71,0.00,CLR,SCT,0.00,WeatherDisplay:10.37,2013-12-12 10:57:00,
2013-12-12 06:02:00,29.2,21.0,30.28,ENE,62,10.4,10.4,71,0.00,CLR,SCT,0.00,WeatherDisplay:10.37,2013-12-12 11:02:00,
2013-12-12 06:07:00,29.0,21.1,30.29,ENE,65,11.5,11.5,72,0.00,CLR,SCT,0.00,WeatherDisplay:10.37,2013-12-12 11:07:00,
2013-12-12 06:12:00,29.0,20.8,30.29,ENE,69,9.2,9.2,71,0.00,CLR,SCT,0.00,WeatherDisplay:10.37,2013-12-12 11:12:00,
2013-12-12 06:17:00,28.8,20.6,30.29,NE,44,5.8,5.8,71,0.00,CLR,SCT,0.00,WeatherDisplay:10.37,2013-12-12 11:17:00,
2013-12-12 06:22:00,29.1,20.9,30.30,NNE,20,4.6,4.6,71,0.00,CLR,SCT,0.00,WeatherDisplay:10.37,2013-12-12 11:22:00,
2013-12-12 06:27:00,29.0,20.8,30.30,NNE,31,5.8,5.8,71,0.00,CLR,SCT,0.00,WeatherDisplay:10.37,2013-12-12 11:27:00,
2013-12-12 06:32:00,29.1,20.9,30.30,ENE,65,6.9,6.9,71,0.00,CLR,SCT,0.00,WeatherDisplay:10.37,2013-12-12 11:32:00,
2013-12-12 06:37:00,29.0,20.8,30.30,East,79,4.6,4.7,71,0.00,CLR,SCT,0.00,WeatherDisplay:10.37,2013-12-12 11:37:00,
2013-12-12 06:42:00,28.9,20.7,30.31,SE,131,6.9,6.9,71,0.00,CLR,SCT,0.00,WeatherDisplay:10.37,2013-12-12 11:42:00,
2013-12-12 06:47:00,28.9,20.7,30.31,NE,42,6.9,6.9,71,0.00,CLR,SCT,0.00,WeatherDisplay:10.37,2013-12-12 11:47:00,
2013-12-12 06:52:00,28.9,21.0,30.31,East,86,4.6,4.6,72,0.00,CLR,SCT,0.00,WeatherDisplay:10.37,2013-12-12 11:52:00,
2013-12-12 06:57:00,28.7,20.5,30.32,NE,38,6.9,6.9,71,0.00,CLR,SCT,0.00,WeatherDisplay:10.37,2013-12-12 11:57:00,
2013-12-12 07:02:00,28.6,20.4,30.32,NE,45,8.1,8.1,71,0.00,CLR,SCT,0.00,WeatherDisplay:10.37,2013-12-12 12:02:00,
2013-12-12 07:07:00,28.6,20.7,30.32,ENE,78,3.5,3.5,72,0.00,CLR,SCT,0.00,WeatherDisplay:10.37,2013-12-12 12:07:00,
2013-12-12 07:12:00,28.7,20.5,30.33,NNE,27,5.8,5.8,71,0.00,CLR,SCT,0.00,WeatherDisplay:10.37,2013-12-12 12:12:00,
2013-12-12 07:18:00,28.7,20.5,30.33,East,79,3.5,3.5,71,0.00,CLR,SCT,0.00,WeatherDisplay:10.37,2013-12-12 12:18:00,
2013-12-12 07:23:00,28.4,20.2,30.33,ENE,61,6.9,6.9,71,0.00,CLR,SCT,0.00,WeatherDisplay:10.37,2013-12-12 12:23:00,
2013-12-12 07:28:00,28.3,20.4,30.33,ENE,78,5.8,5.8,72,0.00,CLR,SCT,0.00,WeatherDisplay:10.37,2013-12-12 12:28:00,
2013-12-12 07:33:00,28.1,19.9,30.32,NNE,21,3.5,3.6,71,0.00,CLR,SCT,0.00,WeatherDisplay:10.37,2013-12-12 12:33:00,
2013-12-12 07:38:00,27.9,20.0,30.33,ENE,73,3.5,3.5,72,0.00,CLR,SCT,0.00,WeatherDisplay:10.37,2013-12-12 12:38:00,
2013-12-12 07:43:00,27.9,20.0,30.33,NNE,20,8.1,8.1,72,0.00,CLR,SCT,0.00,WeatherDisplay:10.37,2013-12-12 12:43:00,
2013-12-12 07:48:00,27.8,19.6,30.34,North,353,6.9,6.9,71,0.00,CLR,SCT,0.00,WeatherDisplay:10.37,2013-12-12 12:48:00,
2013-12-12 07:53:00,27.9,19.7,30.34,NNE,24,5.8,5.8,71,0.00,CLR,SCT,0.00,WeatherDisplay:10.37,2013-12-12 12:53:00,
2013-12-12 07:58:00,27.9,19.7,30.34,ENE,72,6.9,6.9,71,0.00,CLR,SCT,0.00,WeatherDisplay:10.37,2013-12-12 12:58:00,
2013-12-12 08:03:00,28.0,19.5,30.34,ENE,65,5.8,5.8,70,0.00,FEW,SCT,0.00,WeatherDisplay:10.37,2013-12-12 13:03:00,
2013-12-12 08:08:00,28.2,19.7,30.35,NE,56,9.2,9.2,70,0.00,FEW,SCT,0.00,WeatherDisplay:10.37,2013-12-12 13:08:00,
2013-12-12 08:13:00,28.6,19.7,30.35,NE,54,9.2,9.2,69,0.00,FEW,SCT,0.00,WeatherDisplay:10.37,2013-12-12 13:13:00,
2013-12-12 08:18:00,28.9,19.7,30.35,East,88,6.9,6.9,68,0.00,FEW,SCT,0.00,WeatherDisplay:10.37,2013-12-12 13:18:00,
2013-12-12 08:23:00,29.6,20.3,30.35,NNE,32,3.8,3.8,68,0.00,FEW,SCT,0.00,WeatherDisplay:10.37,2013-12-12 13:23:00,
2013-12-12 08:28:00,29.9,20.3,30.35,WNW,298,5.8,5.8,67,0.00,FEW,SCT,0.00,WeatherDisplay:10.37,2013-12-12 13:28:00,
2013-12-12 08:33:00,30.3,20.3,30.35,North,359,6.9,6.9,66,0.00,FEW,SCT,0.00,WeatherDisplay:10.37,2013-12-12 13:33:00,
2013-12-12 08:38:00,30.6,20.2,30.35,NNE,13,4.6,4.6,65,0.00,FEW,SCT,0.00,WeatherDisplay:10.37,2013-12-12 13:38:00,
2013-12-12 08:43:00,31.0,20.2,30.35,ESE,119,4.0,4.0,64,0.00,FEW,SCT,0.00,WeatherDisplay:10.37,2013-12-12 13:43:00,
2013-12-12 08:48:00,31.2,20.1,30.35,ESE,109,5.8,5.8,63,0.00,FEW,SCT,0.00,WeatherDisplay:10.37,2013-12-12 13:48:00,
2013-12-12 08:53:00,31.4,19.9,30.36,East,96,5.8,5.8,62,0.00,FEW,SCT,0.00,WeatherDisplay:10.37,2013-12-12 13:53:00,
2013-12-12 08:58:00,31.7,20.2,30.36,ENE,75,5.1,5.1,62,0.00,FEW,SCT,0.00,WeatherDisplay:10.37,2013-12-12 13:58:00,
2013-12-12 09:03:00,32.1,20.2,30.36,ENE,61,3.5,3.5,61,0.00,FEW,SCT,0.00,WeatherDisplay:10.37,2013-12-12 14:03:00,
2013-12-12 09:08:00,32.5,20.5,30.36,NE,41,6.9,6.9,61,0.00,FEW,SCT,0.00,WeatherDisplay:10.37,2013-12-12 14:08:00,
2013-12-12 09:13:00,33.0,20.6,30.36,East,85,5.8,5.8,60,0.00,FEW,SCT,0.00,WeatherDisplay:10.37,2013-12-12 14:13:00,
2013-12-12 09:18:00,33.4,21.0,30.36,NNW,330,9.2,9.2,60,0.00,FEW,SCT,0.00,WeatherDisplay:10.37,2013-12-12 14:18:00,
2013-12-12 09:23:00,33.7,20.9,30.37,NE,35,3.5,3.5,59,0.00,FEW,SCT,0.00,WeatherDisplay:10.37,2013-12-12 14:23:00,
2013-12-12 09:28:00,34.0,21.2,30.36,ENE,73,0.0,0.0,59,0.00,FEW,SCT,0.00,WeatherDisplay:10.37,2013-12-12 14:28:00,
2013-12-12 09:33:00,34.3,21.0,30.37,NNE,23,3.5,3.5,58,0.00,FEW,SCT,0.00,WeatherDisplay:10.37,2013-12-12 14:33:00,
2013-12-12 09:38:00,34.6,20.9,30.37,NNW,328,0.0,0.0,57,0.00,FEW,SCT,0.00,WeatherDisplay:10.37,2013-12-12 14:38:00,
2013-12-12 09:43:00,34.9,20.8,30.37,NE,34,3.5,3.5,56,0.00,FEW,SCT,0.00,WeatherDisplay:10.37,2013-12-12 14:43:00,
2013-12-12 09:48:00,35.3,20.7,30.37,NE,55,3.5,3.5,55,0.00,FEW,SCT,0.00,WeatherDisplay:10.37,2013-12-12 14:48:00,
2013-12-12 09:53:00,35.6,20.6,30.37,NNE,27,3.5,3.5,54,0.00,FEW,SCT,0.00,WeatherDisplay:10.37,2013-12-12 14:53:00,
2013-12-12 09:58:00,35.8,20.8,30.37,NE,37,6.9,6.9,54,0.00,FEW,SCT,0.00,WeatherDisplay:10.37,2013-12-12 14:58:00,
2013-12-12 10:03:00,36.2,21.1,30.36,East,93,3.5,3.5,54,0.00,CLR,SCT,0.00,WeatherDisplay:10.37,2013-12-12 15:03:00,
2013-12-12 10:08:00,36.4,20.4,30.36,East,93,0.0,0.0,52,0.00,CLR,SCT,0.00,WeatherDisplay:10.37,2013-12-12 15:08:00,
2013-12-12 10:13:00,36.5,20.5,30.37,ENE,69,1.1,1.1,52,0.00,CLR,SCT,0.00,WeatherDisplay:10.37,2013-12-12 15:13:00,
2013-12-12 10:18:00,36.7,20.3,30.37,NE,37,0.0,0.0,51,0.00,CLR,SCT,0.00,WeatherDisplay:10.37,2013-12-12 15:18:00,
2013-12-12 10:23:00,37.0,20.5,30.37,NE,47,0.0,0.0,51,0.00,CLR,SCT,0.00,WeatherDisplay:10.37,2013-12-12 15:23:00,
2013-12-12 10:28:00,37.5,20.5,30.37,ENE,76,4.7,4.7,50,0.00,CLR,SCT,0.00,WeatherDisplay:10.37,2013-12-12 15:28:00,
2013-12-12 10:33:00,38.0,21.0,30.37,North,1,1.1,1.1,50,0.00,CLR,SCT,0.00,WeatherDisplay:10.37,2013-12-12 15:33:00,
2013-12-12 10:38:00,38.1,20.6,30.37,North,4,0.0,0.0,49,0.00,CLR,SCT,0.00,WeatherDisplay:10.37,2013-12-12 15:38:00,
2013-12-12 10:43:00,38.3,20.3,30.37,ENE,62,2.3,2.3,48,0.00,CLR,SCT,0.00,WeatherDisplay:10.37,2013-12-12 15:43:00,
2013-12-12 10:48:00,38.8,20.8,30.36,ENE,59,2.3,0.0,48,0.00,CLR,SCT,0.00,WeatherDisplay:10.37,2013-12-12 15:48:00,
2013-12-12 10:53:00,39.0,20.9,30.36,NNE,20,2.3,2.3,48,0.00,CLR,SCT,0.00,WeatherDisplay:10.37,2013-12-12 15:53:00,
2013-12-12 10:58:00,39.4,21.3,30.36,NNE,17,4.6,4.6,48,0.00,CLR,SCT,0.00,WeatherDisplay:10.37,2013-12-12 15:58:00,
2013-12-12 11:03:00,39.2,21.1,30.36,NNE,30,3.3,3.3,48,0.00,CLR,SCT,0.00,WeatherDisplay:10.37,2013-12-12 16:03:00,
2013-12-12 11:08:00,39.6,21.5,30.36,East,79,6.9,6.9,48,0.00,CLR,SCT,0.00,WeatherDisplay:10.37,2013-12-12 16:08:00,
2013-12-12 11:13:00,39.8,21.2,30.36,East,85,5.8,5.8,47,0.00,CLR,SCT,0.00,WeatherDisplay:10.37,2013-12-12 16:13:00,
2013-12-12 11:18:00,39.6,21.0,30.36,NNE,28,4.6,4.6,47,0.00,CLR,SCT,0.00,WeatherDisplay:10.37,2013-12-12 16:18:00,
2013-12-12 11:23:00,39.9,20.8,30.35,NNW,346,5.8,5.8,46,0.00,CLR,SCT,0.00,WeatherDisplay:10.37,2013-12-12 16:23:00,
2013-12-12 11:28:00,40.4,20.7,30.35,NE,34,5.8,5.8,45,0.00,CLR,SCT,0.00,WeatherDisplay:10.37,2013-12-12 16:28:00,
2013-12-12 11:33:00,40.2,20.5,30.34,NNW,344,8.1,8.1,45,0.00,CLR,SCT,0.00,WeatherDisplay:10.37,2013-12-12 16:33:00,
2013-12-12 11:38:00,40.2,20.5,30.34,ENE,71,9.2,9.2,45,0.00,CLR,SCT,0.00,WeatherDisplay:10.37,2013-12-12 16:38:00,
2013-12-12 11:43:00,40.6,21.4,30.34,NNE,27,3.7,3.7,46,0.00,CLR,SCT,0.00,WeatherDisplay:10.37,2013-12-12 16:43:00,
2013-12-12 11:48:00,41.0,21.3,30.33,NE,51,8.1,8.1,45,0.00,CLR,SCT,0.00,WeatherDisplay:10.37,2013-12-12 16:48:00,
2013-12-12 11:53:00,41.5,21.7,30.33,NNE,23,9.2,9.2,45,0.00,CLR,SCT,0.00,WeatherDisplay:10.37,2013-12-12 16:53:00,
2013-12-12 11:58:00,41.5,20.6,30.33,NNW,329,4.6,4.6,43,0.00,CLR,SCT,0.00,WeatherDisplay:10.37,2013-12-12 16:58:00,
2013-12-12 12:03:00,41.9,21.0,30.33,NNE,18,10.4,10.4,43,0.00,CLR,SCT,0.00,WeatherDisplay:10.37,2013-12-12 17:03:00,
2013-12-12 12:08:00,42.0,21.1,30.33,NNE,17,10.4,10.4,43,0.00,CLR,SCT,0.00,WeatherDisplay:10.37,2013-12-12 17:08:00,
2013-12-12 12:13:00,42.0,21.1,30.33,NW,304,4.6,4.6,43,0.00,CLR,SCT,0.00,WeatherDisplay:10.37,2013-12-12 17:13:00,
2013-12-12 12:18:00,42.3,20.8,30.33,NNE,31,4.6,4.6,42,0.00,CLR,SCT,0.00,WeatherDisplay:10.37,2013-12-12 17:18:00,
2013-12-12 12:23:00,42.8,21.3,30.33,NNE,17,6.9,6.9,42,0.00,CLR,SCT,0.00,WeatherDisplay:10.37,2013-12-12 17:23:00,
2013-12-12 12:28:00,43.2,20.5,30.33,ENE,68,8.1,8.1,40,0.00,CLR,SCT,0.00,WeatherDisplay:10.37,2013-12-12 17:28:00,
2013-12-12 12:33:00,43.3,21.7,30.32,East,93,2.5,2.5,42,0.00,CLR,SCT,0.00,WeatherDisplay:10.37,2013-12-12 17:33:00,
2013-12-12 12:38:00,43.9,22.3,30.33,NE,52,5.8,5.8,42,0.00,CLR,SCT,0.00,WeatherDisplay:10.37,2013-12-12 17:38:00,
2013-12-12 12:43:00,44.1,21.3,30.32,ENE,78,9.0,9.0,40,0.00,CLR,SCT,0.00,WeatherDisplay:10.37,2013-12-12 17:43:00,
2013-12-12 12:48:00,44.2,21.4,30.32,ESE,106,3.5,3.5,40,0.00,CLR,SCT,0.00,WeatherDisplay:10.37,2013-12-12 17:48:00,
2013-12-12 12:53:00,44.4,21.0,30.32,NNW,346,6.9,6.9,39,0.00,CLR,SCT,0.00,WeatherDisplay:10.37,2013-12-12 17:53:00,
2013-12-12 12:58:00,44.6,21.1,30.32,West,260,8.1,8.1,39,0.00,CLR,SCT,0.00,WeatherDisplay:10.37,2013-12-12 17:58:00,
2013-12-12 13:03:00,44.7,21.2,30.32,NNW,335,6.9,6.9,39,0.00,CLR,SCT,0.00,WeatherDisplay:10.37,2013-12-12 18:03:00,
2013-12-12 13:08:00,44.7,21.2,30.32,NE,35,11.5,11.5,39,0.00,CLR,SCT,0.00,WeatherDisplay:10.37,2013-12-12 18:08:00,
2013-12-12 13:13:00,44.8,21.3,30.32,NE,54,3.9,3.9,39,0.00,CLR,SCT,0.00,WeatherDisplay:10.37,2013-12-12 18:13:00,
2013-12-12 13:18:00,44.9,20.8,30.32,NNE,16,2.2,2.2,38,0.00,CLR,SCT,0.00,WeatherDisplay:10.37,2013-12-12 18:18:00,
2013-12-12 13:23:00,44.9,21.4,30.32,NE,34,3.2,3.2,39,0.00,CLR,SCT,0.00,WeatherDisplay:10.37,2013-12-12 18:23:00,
2013-12-12 13:28:00,44.8,21.9,30.32,East,92,8.1,8.1,40,0.00,CLR,SCT,0.00,WeatherDisplay:10.37,2013-12-12 18:28:00,
2013-12-12 13:33:00,44.9,22.0,30.32,North,0,8.1,8.1,40,0.00,CLR,SCT,0.00,WeatherDisplay:10.37,2013-12-12 18:33:00,
2013-12-12 13:38:00,45.0,21.5,30.31,NW,308,6.9,6.9,39,0.00,CLR,SCT,0.00,WeatherDisplay:10.37,2013-12-12 18:38:00,
2013-12-12 13:43:00,45.2,21.7,30.31,WSW,256,5.8,5.8,39,0.00,CLR,SCT,0.00,WeatherDisplay:10.37,2013-12-12 18:43:00,
2013-12-12 13:48:00,44.7,21.2,30.30,WNW,288,12.7,12.7,39,0.00,CLR,SCT,0.00,WeatherDisplay:10.37,2013-12-12 18:48:00,
2013-12-12 13:53:00,44.5,21.6,30.30,NW,318,1.1,0.0,40,0.00,CLR,SCT,0.00,WeatherDisplay:10.37,2013-12-12 18:53:00,
2013-12-12 13:58:00,44.5,21.6,30.30,ENE,61,2.3,2.3,40,0.00,CLR,SCT,0.00,WeatherDisplay:10.37,2013-12-12 18:58:00,
2013-12-12 14:03:00,45.0,21.5,30.30,NNE,21,3.5,3.5,39,0.00,CLR,SCT,0.00,WeatherDisplay:10.37,2013-12-12 19:03:00,
2013-12-12 14:08:00,45.1,21.6,30.30,NNE,16,0.0,0.4,39,0.00,CLR,SCT,0.00,WeatherDisplay:10.37,2013-12-12 19:08:00,
2013-12-12 14:13:00,45.3,22.4,30.30,NNW,335,6.9,6.9,40,0.00,CLR,SCT,0.00,WeatherDisplay:10.37,2013-12-12 19:13:00,
2013-12-12 14:18:00,45.4,21.2,30.30,WNW,284,4.6,4.6,38,0.00,CLR,SCT,0.00,WeatherDisplay:10.37,2013-12-12 19:18:00,
2013-12-12 14:23:00,45.6,21.4,30.30,NNW,342,4.6,4.6,38,0.00,CLR,SCT,0.00,WeatherDisplay:10.37,2013-12-12 19:23:00,
2013-12-12 14:28:00,45.4,21.2,30.30,NNW,339,6.9,6.9,38,0.00,CLR,SCT,0.00,WeatherDisplay:10.37,2013-12-12 19:28:00,
2013-12-12 14:33:00,44.9,20.8,30.30,SW,223,8.1,8.1,38,0.00,CLR,SCT,0.00,WeatherDisplay:10.37,2013-12-12 19:33:00,
2013-12-12 14:38:00,44.7,21.2,30.30,NNE,24,10.4,10.4,39,0.00,CLR,SCT,0.00,WeatherDisplay:10.37,2013-12-12 19:38:00,
2013-12-12 14:43:00,44.8,20.7,30.30,NNW,332,6.9,6.9,38,0.00,CLR,SCT,0.00,WeatherDisplay:10.37,2013-12-12 19:43:00,
2013-12-12 14:48:00,45.3,21.2,30.30,ENE,65,5.8,5.8,38,0.00,CLR,SCT,0.00,WeatherDisplay:10.37,2013-12-12 19:48:00,
2013-12-12 14:53:00,45.4,21.2,30.29,NNW,330,8.1,8.1,38,0.00,CLR,SCT,0.00,WeatherDisplay:10.37,2013-12-12 19:53:00,
2013-12-12 14:58:00,45.4,21.2,30.29,NW,325,8.1,8.1,38,0.00,CLR,SCT,0.00,WeatherDisplay:10.37,2013-12-12 19:58:00,
2013-12-12 15:03:00,45.4,20.6,30.29,ENE,66,4.6,4.6,37,0.00,CLR,SCT,0.00,WeatherDisplay:10.37,2013-12-12 20:03:00,
2013-12-12 15:08:00,45.4,20.6,30.29,North,10,4.8,4.8,37,0.00,CLR,SCT,0.00,WeatherDisplay:10.37,2013-12-12 20:08:00,
2013-12-12 15:13:00,45.2,20.4,30.29,SSE,160,4.6,4.6,37,0.00,CLR,SCT,0.00,WeatherDisplay:10.37,2013-12-12 20:13:00,
2013-12-12 15:18:00,45.2,19.8,30.29,WNW,291,10.4,10.4,36,0.00,CLR,SCT,0.00,WeatherDisplay:10.37,2013-12-12 20:18:00,
2013-12-12 15:23:00,44.4,19.1,30.29,NW,326,9.2,9.2,36,0.00,CLR,SCT,0.00,WeatherDisplay:10.37,2013-12-12 20:23:00,
2013-12-12 15:28:00,43.9,19.3,30.29,NE,44,6.9,6.9,37,0.00,CLR,SCT,0.00,WeatherDisplay:10.37,2013-12-12 20:28:00,
2013-12-12 15:33:00,43.3,18.1,30.30,NNW,329,10.4,10.4,36,0.00,CLR,SCT,0.00,WeatherDisplay:10.37,2013-12-12 20:33:00,
2013-12-12 15:38:00,42.9,18.4,30.30,NE,55,8.1,8.1,37,0.00,CLR,SCT,0.00,WeatherDisplay:10.37,2013-12-12 20:38:00,
2013-12-12 15:43:00,42.2,17.8,30.30,North,11,10.4,10.4,37,0.00,CLR,SCT,0.00,WeatherDisplay:10.37,2013-12-12 20:43:00,
2013-12-12 15:48:00,41.7,17.3,30.30,WNW,295,11.5,11.5,37,0.00,CLR,SCT,0.00,WeatherDisplay:10.37,2013-12-12 20:48:00,
2013-12-12 15:53:00,41.1,17.4,30.31,WNW,284,6.4,6.4,38,0.00,CLR,SCT,0.00,WeatherDisplay:10.37,2013-12-12 20:53:00,
2013-12-12 15:58:00,40.5,16.9,30.31,North,1,6.9,6.9,38,0.00,CLR,SCT,0.00,WeatherDisplay:10.37,2013-12-12 20:58:00,
2013-12-12 16:03:00,40.4,17.4,30.31,NNE,20,4.6,4.6,39,0.00,CLR,SCT,0.00,WeatherDisplay:10.37,2013-12-12 21:03:00,
2013-12-12 16:08:00,39.9,16.9,30.32,NW,312,8.1,8.1,39,0.00,CLR,SCT,0.00,WeatherDisplay:10.37,2013-12-12 21:08:00,
2013-12-12 16:13:00,39.0,16.7,30.32,West,275,12.7,12.7,40,0.00,CLR,SCT,0.00,WeatherDisplay:10.37,2013-12-12 21:13:00,
2013-12-12 16:18:00,38.4,16.7,30.32,SSW,206,6.9,6.9,41,0.00,CLR,SCT,0.00,WeatherDisplay:10.37,2013-12-12 21:18:00,
2013-12-12 16:23:00,38.2,16.5,30.32,NW,318,3.5,3.5,41,0.00,CLR,SCT,0.00,WeatherDisplay:10.37,2013-12-12 21:23:00,
2013-12-12 16:25:00,38.3,16.6,30.32,North,11,3.0,7.0,41,0.00,CLR,SCT,0.00,WeatherDisplay:10.37,2013-12-12 21:25:00,
2013-12-12 16:30:00,38.0,16.9,30.32,WNW,282,11.5,11.5,42,0.00,CLR,SCT,0.00,WeatherDisplay:10.37,2013-12-12 21:30:00,
2013-12-12 16:35:00,37.8,16.7,30.31,North,7,4.6,4.6,42,0.00,CLR,SCT,0.00,WeatherDisplay:10.37,2013-12-12 21:35:00,
2013-12-12 16:40:00,37.7,16.6,30.31,NW,326,0.0,5.0,42,0.00,CLR,SCT,0.00,WeatherDisplay:10.37,2013-12-12 21:40:00,
2013-12-12 16:45:00,37.7,16.6,30.32,NNE,23,3.1,3.1,42,0.00,CLR,SCT,0.00,WeatherDisplay:10.37,2013-12-12 21:45:00,
2013-12-12 16:50:00,37.3,16.3,30.32,NW,312,2.0,12.0,42,0.00,CLR,SCT,0.00,WeatherDisplay:10.37,2013-12-12 21:50:00,
2013-12-12 16:55:00,36.8,15.8,30.32,NW,311,3.0,9.0,42,0.00,CLR,SCT,0.00,WeatherDisplay:10.37,2013-12-12 21:55:00,
2013-12-12 17:00:00,36.4,15.5,30.32,SW,217,4.6,4.6,42,0.00,CLR,SCT,0.00,WeatherDisplay:10.37,2013-12-12 22:00:00,
2013-12-12 17:05:00,36.1,15.7,30.32,West,275,1.1,1.1,43,0.00,CLR,SCT,0.00,WeatherDisplay:10.37,2013-12-12 22:05:00,
2013-12-12 17:10:00,35.8,15.5,30.32,NNW,340,8.1,8.1,43,0.00,CLR,SCT,0.00,WeatherDisplay:10.37,2013-12-12 22:10:00,
2013-12-12 17:15:00,35.7,15.4,30.32,NW,315,4.2,4.2,43,0.00,CLR,SCT,0.00,WeatherDisplay:10.37,2013-12-12 22:15:00,
2013-12-12 17:20:00,35.5,15.2,30.32,NNW,339,8.1,8.1,43,0.00,CLR,SCT,0.00,WeatherDisplay:10.37,2013-12-12 22:20:00,
2013-12-12 17:25:00,35.2,14.9,30.32,NNW,337,10.4,10.4,43,0.00,CLR,SCT,0.00,WeatherDisplay:10.37,2013-12-12 22:25:00,
2013-12-12 17:30:00,34.9,14.6,30.32,NE,42,3.5,3.5,43,0.00,CLR,SCT,0.00,WeatherDisplay:10.37,2013-12-12 22:30:00,
2013-12-12 17:35:00,34.6,14.9,30.32,NE,51,4.6,4.6,44,0.00,CLR,SCT,0.00,WeatherDisplay:10.37,2013-12-12 22:35:00,
2013-12-12 17:40:00,34.7,15.0,30.32,NE,49,5.8,5.8,44,0.00,CLR,SCT,0.00,WeatherDisplay:10.37,2013-12-12 22:40:00,
2013-12-12 17:45:00,34.7,15.0,30.33,NNW,339,5.8,5.8,44,0.00,CLR,SCT,0.00,WeatherDisplay:10.37,2013-12-12 22:45:00,
2013-12-12 17:50:00,34.5,15.3,30.32,East,90,9.2,9.2,45,0.00,CLR,SCT,0.00,WeatherDisplay:10.37,2013-12-12 22:50:00,
2013-12-12 17:55:00,34.3,14.6,30.32,NW,304,4.6,4.6,44,0.00,CLR,SCT,0.00,WeatherDisplay:10.37,2013-12-12 22:55:00,
2013-12-12 18:00:00,34.1,14.4,30.33,NNW,343,4.6,4.6,44,0.00,CLR,SCT,0.00,WeatherDisplay:10.37,2013-12-12 23:00:00,
2013-12-12 18:05:00,34.2,14.5,30.33,North,7,9.2,9.2,44,0.00,CLR,SCT,0.00,WeatherDisplay:10.37,2013-12-12 23:05:00,
2013-12-12 18:10:00,33.8,14.2,30.32,NE,56,8.1,8.1,44,0.00,CLR,SCT,0.00,WeatherDisplay:10.37,2013-12-12 23:10:00,
2013-12-12 18:15:00,33.6,14.0,30.32,NE,37,4.6,4.6,44,0.00,CLR,SCT,0.00,WeatherDisplay:10.37,2013-12-12 23:15:00,
2013-12-12 18:20:00,33.4,14.3,30.32,ENE,58,5.8,5.8,45,0.00,CLR,SCT,0.00,WeatherDisplay:10.37,2013-12-12 23:20:00,
2013-12-12 18:25:00,33.3,14.2,30.32,NNW,342,5.8,5.8,45,0.00,CLR,SCT,0.00,WeatherDisplay:10.37,2013-12-12 23:25:00,
2013-12-12 18:30:00,33.1,14.5,30.32,NE,41,5.8,5.8,46,0.00,CLR,SCT,0.00,WeatherDisplay:10.37,2013-12-12 23:30:00,
2013-12-12 18:35:00,33.0,14.4,30.32,North,7,4.6,4.6,46,0.00,CLR,SCT,0.00,WeatherDisplay:10.37,2013-12-12 23:35:00,
2013-12-12 18:40:00,33.0,14.4,30.32,NE,52,3.1,3.1,46,0.00,CLR,SCT,0.00,WeatherDisplay:10.37,2013-12-12 23:40:00,
2013-12-12 18:45:00,33.0,14.4,30.32,North,1,3.6,3.6,46,0.00,CLR,SCT,0.00,WeatherDisplay:10.37,2013-12-12 23:45:00,
2013-12-12 18:50:00,33.0,14.4,30.32,WNW,301,3.5,3.5,46,0.00,CLR,SCT,0.00,WeatherDisplay:10.37,2013-12-12 23:50:00,
2013-12-12 18:55:00,32.6,14.1,30.33,North,356,5.8,5.8,46,0.00,CLR,SCT,0.00,WeatherDisplay:10.37,2013-12-12 23:55:00,
2013-12-12 19:00:00,32.4,13.9,30.33,North,11,6.9,6.9,46,0.00,CLR,SCT,0.00,WeatherDisplay:10.37,2013-12-13 00:00:00,
2013-12-12 19:05:00,32.1,13.7,30.33,NNE,23,8.1,8.1,46,0.00,CLR,SCT,0.00,WeatherDisplay:10.37,2013-12-13 00:05:00,
2013-12-12 19:10:00,32.1,13.7,30.33,NW,319,8.1,8.1,46,0.00,CLR,SCT,0.00,WeatherDisplay:10.37,2013-12-13 00:10:00,
2013-12-12 19:15:00,31.9,14.0,30.32,ENE,73,6.9,6.9,47,0.00,CLR,SCT,0.00,WeatherDisplay:10.37,2013-12-13 00:15:00,
2013-12-12 19:20:00,31.8,13.9,30.32,North,350,2.3,2.3,47,0.00,CLR,SCT,0.00,WeatherDisplay:10.37,2013-12-13 00:20:00,
2013-12-12 19:25:00,31.8,13.9,30.32,NE,42,3.5,3.5,47,0.00,CLR,SCT,0.00,WeatherDisplay:10.37,2013-12-13 00:25:00,
2013-12-12 19:30:00,31.6,14.2,30.32,NE,34,9.2,9.2,48,0.00,CLR,SCT,0.00,WeatherDisplay:10.37,2013-12-13 00:30:00,
2013-12-12 19:35:00,31.6,14.6,30.32,North,3,5.8,5.8,49,0.00,CLR,SCT,0.00,WeatherDisplay:10.37,2013-12-13 00:35:00,
2013-12-12 19:40:00,31.7,14.3,30.32,NW,323,3.5,3.5,48,0.00,CLR,SCT,0.00,WeatherDisplay:10.37,2013-12-13 00:40:00,
2013-12-12 19:45:00,31.5,14.5,30.32,NNW,342,7.4,7.4,49,0.00,CLR,SCT,0.00,WeatherDisplay:10.37,2013-12-13 00:45:00,
2013-12-12 19:50:00,31.2,13.8,30.32,ENE,69,3.5,3.5,48,0.00,CLR,SCT,0.00,WeatherDisplay:10.37,2013-12-13 00:50:00,
2013-12-12 19:55:00,31.0,14.1,30.32,NNE,25,6.9,6.9,49,0.00,CLR,SCT,0.00,WeatherDisplay:10.37,2013-12-13 00:55:00,
2013-12-12 20:00:00,30.9,14.0,30.31,East,79,6.9,6.9,49,0.00,CLR,SCT,0.00,WeatherDisplay:10.37,2013-12-13 01:00:00,
2013-12-12 20:05:00,30.8,14.4,30.32,NE,49,4.6,4.6,50,0.00,CLR,SCT,0.00,WeatherDisplay:10.37,2013-12-13 01:05:00,
2013-12-12 20:10:00,30.9,14.5,30.32,East,95,3.5,3.5,50,0.00,CLR,SCT,0.00,WeatherDisplay:10.37,2013-12-13 01:10:00,
2013-12-12 20:15:00,30.9,14.5,30.31,NE,55,3.5,3.5,50,0.00,CLR,SCT,0.00,WeatherDisplay:10.37,2013-12-13 01:15:00,
2013-12-12 20:20:00,31.0,15.0,30.32,North,6,5.8,5.8,51,0.00,CLR,SCT,0.00,WeatherDisplay:10.37,2013-12-13 01:20:00,
2013-12-12 20:25:00,31.1,15.1,30.32,NNW,342,4.6,4.6,51,0.00,CLR,SCT,0.00,WeatherDisplay:10.37,2013-12-13 01:25:00,
2013-12-12 20:30:00,31.1,14.6,30.32,NE,38,4.6,4.6,50,0.00,CLR,SCT,0.00,WeatherDisplay:10.37,2013-12-13 01:30:00,
2013-12-12 20:35:00,30.9,14.5,30.32,NE,54,4.6,4.6,50,0.00,CLR,SCT,0.00,WeatherDisplay:10.37,2013-12-13 01:35:00,
2013-12-12 20:40:00,30.9,14.9,30.31,ENE,61,4.6,4.6,51,0.00,CLR,SCT,0.00,WeatherDisplay:10.37,2013-12-13 01:40:00,
2013-12-12 20:45:00,30.8,14.8,30.32,North,0,5.8,5.8,51,0.00,CLR,SCT,0.00,WeatherDisplay:10.37,2013-12-13 01:45:00,
2013-12-12 20:51:00,30.7,15.2,30.31,East,90,3.5,3.5,52,0.00,CLR,SCT,0.00,WeatherDisplay:10.37,2013-12-13 01:51:00,
2013-12-12 20:56:00,30.7,15.2,30.31,North,354,2.3,2.5,52,0.00,CLR,SCT,0.00,WeatherDisplay:10.37,2013-12-13 01:56:00,
2013-12-12 21:01:00,30.5,15.0,30.30,NW,309,4.6,4.6,52,0.00,CLR,SCT,0.00,WeatherDisplay:10.37,2013-12-13 02:01:00,
2013-12-12 21:06:00,30.5,15.0,30.30,West,280,3.5,3.5,52,0.00,CLR,SCT,0.00,WeatherDisplay:10.37,2013-12-13 02:06:00,
2013-12-12 21:11:00,30.3,14.8,30.30,NW,326,4.6,4.6,52,0.00,CLR,SCT,0.00,WeatherDisplay:10.37,2013-12-13 02:11:00,
2013-12-12 21:16:00,30.3,14.8,30.30,East,95,1.3,2.6,52,0.00,CLR,SCT,0.00,WeatherDisplay:10.37,2013-12-13 02:16:00,
2013-12-12 21:21:00,30.4,14.9,30.30,NE,38,2.3,2.3,52,0.00,CLR,SCT,0.00,WeatherDisplay:10.37,2013-12-13 02:21:00,
2013-12-12 21:26:00,30.2,14.7,30.30,NNW,329,8.0,8.0,52,0.00,CLR,SCT,0.00,WeatherDisplay:10.37,2013-12-13 02:26:00,
2013-12-12 21:31:00,30.2,15.1,30.30,NW,315,5.8,5.8,53,0.00,CLR,SCT,0.00,WeatherDisplay:10.37,2013-12-13 02:31:00,
2013-12-12 21:36:00,29.9,14.9,30.30,WSW,248,4.6,4.6,53,0.00,CLR,SCT,0.00,WeatherDisplay:10.37,2013-12-13 02:36:00,
2013-12-12 21:41:00,29.9,15.3,30.29,North,11,4.6,4.6,54,0.00,CLR,SCT,0.00,WeatherDisplay:10.37,2013-12-13 02:41:00,
2013-12-12 21:46:00,29.9,14.9,30.29,NW,304,6.9,6.9,53,0.00,CLR,SCT,0.00,WeatherDisplay:10.37,2013-12-13 02:46:00,
2013-12-12 21:51:00,29.8,14.8,30.29,NNW,333,4.2,4.2,53,0.00,CLR,SCT,0.00,WeatherDisplay:10.37,2013-12-13 02:51:00,
2013-12-12 21:56:00,29.7,15.1,30.29,North,4,5.8,5.8,54,0.00,CLR,SCT,0.00,WeatherDisplay:10.37,2013-12-13 02:56:00,
2013-12-12 22:01:00,29.7,15.1,30.29,East,79,3.5,3.5,54,0.00,CLR,SCT,0.00,WeatherDisplay:10.37,2013-12-13 03:01:00,
2013-12-12 22:06:00,29.9,15.3,30.29,NE,35,4.8,4.8,54,0.00,CLR,SCT,0.00,WeatherDisplay:10.37,2013-12-13 03:06:00,
2013-12-12 22:11:00,29.8,15.2,30.29,NNW,337,3.5,3.5,54,0.00,CLR,SCT,0.00,WeatherDisplay:10.37,2013-12-13 03:11:00,
2013-12-12 22:16:00,29.7,15.1,30.30,North,3,6.9,6.9,54,0.00,CLR,SCT,0.00,WeatherDisplay:10.37,2013-12-13 03:16:00,
2013-12-12 22:21:00,29.7,15.1,30.30,ENE,61,3.7,3.7,54,0.00,CLR,SCT,0.00,WeatherDisplay:10.37,2013-12-13 03:21:00,
2013-12-12 22:26:00,29.7,15.1,30.30,WNW,302,1.1,1.1,54,0.00,CLR,SCT,0.00,WeatherDisplay:10.37,2013-12-13 03:26:00,
2013-12-12 22:31:00,29.7,15.1,30.29,ENE,65,5.8,5.8,54,0.00,CLR,SCT,0.00,WeatherDisplay:10.37,2013-12-13 03:31:00,
2013-12-12 22:36:00,29.7,15.1,30.29,WSW,240,2.3,2.3,54,0.00,CLR,SCT,0.00,WeatherDisplay:10.37,2013-12-13 03:36:00,
2013-12-12 22:41:00,29.6,14.6,30.29,WNW,282,6.9,6.9,53,0.00,CLR,SCT,0.00,WeatherDisplay:10.37,2013-12-13 03:41:00,
2013-12-12 22:46:00,29.6,15.0,30.28,NE,54,4.6,4.6,54,0.00,CLR,SCT,0.00,WeatherDisplay:10.37,2013-12-13 03:46:00,
2013-12-12 22:51:00,29.6,15.0,30.28,NW,319,6.8,6.8,54,0.00,CLR,SCT,0.00,WeatherDisplay:10.37,2013-12-13 03:51:00,
2013-12-12 22:56:00,29.6,15.0,30.28,SSE,160,2.3,2.3,54,0.00,CLR,SCT,0.00,WeatherDisplay:10.37,2013-12-13 03:56:00,
2013-12-12 23:01:00,29.7,15.1,30.28,North,10,4.7,4.7,54,0.00,CLR,SCT,0.00,WeatherDisplay:10.37,2013-12-13 04:01:00,
2013-12-12 23:06:00,29.7,15.1,30.28,NE,48,5.8,5.8,54,0.00,CLR,SCT,0.00,WeatherDisplay:10.37,2013-12-13 04:06:00,
2013-12-12 23:11:00,29.8,15.6,30.28,ENE,65,4.6,4.6,55,0.00,CLR,SCT,0.00,WeatherDisplay:10.37,2013-12-13 04:11:00,
2013-12-12 23:16:00,29.7,15.5,30.28,NNE,20,4.0,4.0,55,0.00,CLR,SCT,0.00,WeatherDisplay:10.37,2013-12-13 04:16:00,
2013-12-12 23:21:00,29.8,15.6,30.28,NNW,332,4.6,4.6,55,0.00,CLR,SCT,0.00,WeatherDisplay:10.37,2013-12-13 04:21:00,
2013-12-12 23:26:00,29.7,15.5,30.28,North,4,3.8,3.8,55,0.00,CLR,SCT,0.00,WeatherDisplay:10.37,2013-12-13 04:26:00,
2013-12-12 23:31:00,29.5,14.9,30.28,WNW,298,11.5,11.5,54,0.00,CLR,SCT,0.00,WeatherDisplay:10.37,2013-12-13 04:31:00,
2013-12-12 23:36:00,29.5,15.3,30.28,NNW,330,5.8,5.8,55,0.00,CLR,SCT,0.00,WeatherDisplay:10.37,2013-12-13 04:36:00,
2013-12-12 23:41:00,29.6,15.4,30.28,NNE,13,8.2,8.2,55,0.00,CLR,SCT,0.00,WeatherDisplay:10.37,2013-12-13 04:41:00,
2013-12-12 23:46:00,29.5,15.3,30.28,North,6,8.1,8.1,55,0.00,CLR,SCT,0.00,WeatherDisplay:10.37,2013-12-13 04:46:00,
2013-12-12 23:51:00,29.5,15.3,30.28,NNW,328,9.2,9.2,55,0.00,CLR,SCT,0.00,WeatherDisplay:10.37,2013-12-13 04:51:00,
2013-12-12 23:56:00,29.6,15.4,30.27,NNE,18,5.5,5.5,55,0.00,CLR,SCT,0.00,WeatherDisplay:10.37,2013-12-13 04:56:00,